Simultaneous Nadir Overpasses (SNOs) Predictions

Prediction of SNOs between AQUA and NPP Satellite Orbit:

Table of predicted SNOs for the next 14.0 days since TLE Epoch: 9/9/2016
Index Date (AQUA) Time (AQUA) Lat,Lon (AQUA) SZA (AQUA ) Date (NPP) Time (NPP) Lat,Lon (NPP) SZA (NPP ) Distance(km) Time Diff (sec)
1 09/10/2016 13:16:03 73.65,-145.97 95.10 09/10/2016 13:15:02 73.66,-145.95 95.15 0.67 61
2 09/10/2016 14:05:04 -74.97, 24.78 86.32 09/10/2016 14:05:20 -74.96, 24.73 86.32 1.55 16
3 09/13/2016 05:32:16 74.40, -28.40 95.24 09/13/2016 05:31:39 74.41, -28.32 95.25 2.80 37
4 09/13/2016 06:21:20 -75.58, 142.35 86.05 09/13/2016 06:22:00 -75.59, 142.38 86.10 1.09 40
5 09/15/2016 21:48:39 74.65, 88.11 95.91 09/15/2016 21:48:27 74.66, 88.13 95.92 0.64 12
6 09/15/2016 22:37:43 -75.83,-101.04 85.38 09/15/2016 22:38:48 -75.83,-101.06 85.43 0.72 65
7 09/18/2016 13:16:04 -73.49, 33.68 81.90 09/18/2016 13:15:00 -73.49, 33.68 81.84 0.13 64
8 09/18/2016 14:04:59 75.05,-154.99 96.44 09/18/2016 14:05:12 75.05,-155.00 96.43 0.27 13
9 09/21/2016 05:32:20 -74.09, 150.88 81.58 09/21/2016 05:31:41 -74.09, 150.89 81.55 0.33 39




NCC Satellite Simultaneous Nadir Overpasses (SNOs) Prediction Service
